TimeAKDT,TemperatureF,Dew PointF,Humidity,Sea Level PressureIn,VisibilityMPH,Wind Direction,Wind SpeedMPH,Gust SpeedMPH,PrecipitationIn,Events,Conditions,WindDirDegrees,DateUTC
12:53 AM,52.0,44.1,74,30.09,10.0,SSW,18.4,32.2,0.00,,Overcast,200,2012-09-17 08:53:00
1:53 AM,52.0,44.1,74,30.06,10.0,SSW,20.7,29.9,0.00,Rain,Light Rain,200,2012-09-17 09:53:00
2:53 AM,51.1,45.0,80,30.08,10.0,SSW,21.9,29.9,0.00,,Overcast,210,2012-09-17 10:53:00
3:53 AM,51.1,45.0,80,30.04,10.0,SSW,26.5,34.5,0.01,Rain,Light Rain,210,2012-09-17 11:53:00
4:53 AM,51.1,45.0,80,30.06,10.0,SSW,23.0,28.8,0.00,Rain,Light Rain,210,2012-09-17 12:53:00
5:53 AM,52.0,45.0,77,30.04,10.0,SSW,19.6,28.8,0.01,,Overcast,200,2012-09-17 13:53:00
6:53 AM,51.1,45.0,80,30.04,10.0,SSW,21.9,32.2,N/A,,Overcast,210,2012-09-17 14:53:00
7:53 AM,52.0,45.0,77,30.02,10.0,SSW,24.2,31.1,N/A,,Overcast,210,2012-09-17 15:53:00
8:53 AM,51.1,46.0,83,30.03,10.0,SSW,25.3,36.8,N/A,,Overcast,200,2012-09-17 16:53:00
9:53 AM,52.0,46.0,80,30.00,10.0,SSW,26.5,35.7,N/A,,Overcast,210,2012-09-17 17:53:00
10:53 AM,52.0,46.0,80,30.01,10.0,SSW,26.5,34.5,N/A,,Overcast,210,2012-09-17 18:53:00
11:32 AM,51.8,46.4,82,30.01,10.0,SSW,19.6,29.9,N/A,,Overcast,200,2012-09-17 19:32:00
11:53 AM,53.1,46.0,77,30.00,10.0,SSW,23.0,33.4,N/A,,Overcast,200,2012-09-17 19:53:00
12:00 PM,51.8,46.4,82,30.00,10.0,SSW,20.7,33.4,N/A,,Overcast,200,2012-09-17 20:00:00
12:53 PM,52.0,46.0,80,30.01,10.0,SSW,21.9,31.1,N/A,,Overcast,200,2012-09-17 20:53:00
1:53 PM,53.1,46.0,77,30.01,10.0,SSW,20.7,29.9,N/A,,Overcast,200,2012-09-17 21:53:00
2:53 PM,53.1,46.0,77,30.01,10.0,SSW,23.0,32.2,N/A,,Overcast,200,2012-09-17 22:53:00
3:53 PM,55.0,44.1,67,30.03,10.0,SSW,18.4,24.2,N/A,,Overcast,200,2012-09-17 23:53:00
4:53 PM,55.0,44.1,67,30.02,10.0,SSW,17.3,28.8,N/A,,Scattered Clouds,200,2012-09-18 00:53:00
5:53 PM,54.0,43.0,66,30.03,10.0,SSW,18.4,27.6,N/A,,Mostly Cloudy,210,2012-09-18 01:53:00
6:53 PM,54.0,41.0,62,30.06,10.0,SSW,12.7,-,N/A,,Overcast,200,2012-09-18 02:53:00
7:53 PM,53.1,41.0,64,30.06,10.0,SSW,18.4,26.5,N/A,,Partly Cloudy,200,2012-09-18 03:53:00
8:53 PM,53.1,37.9,57,30.10,10.0,SSW,15.0,21.9,N/A,,Overcast,200,2012-09-18 04:53:00
9:53 PM,53.1,39.0,59,30.11,10.0,SSW,12.7,20.7,N/A,,Overcast,200,2012-09-18 05:53:00
10:53 PM,52.0,41.0,66,30.13,10.0,SSW,15.0,25.3,N/A,,Overcast,210,2012-09-18 06:53:00
11:53 PM,50.0,41.0,71,30.14,10.0,SSW,17.3,23.0,N/A,,Overcast,200,2012-09-18 07:53:00